Latest Weather Observations for Sydney Harbour

IDN60901

Issued at 5:45 am EST Wednesday 3 September 2014 (issued every 10 minutes, with the page automatically refreshed every 10 minutes)

About weather observations | Map of Sydney area stations | Latest observations for Sydney area | Other Formats
Station Details ID: 066196 Name: WEDDING CAKE WEST Lat: -33.84 Lon: 151.26 Height: 6.0 m
Data from the previous 72 hours. | See also: Recent months for locations in New South Wales
Date/Time
EST
Tmp

°C
App
Tmp
°C
Dew
Point
°C
Rel
Hum
%
Delta-T

°C
Wind Press
QNH
hPa
Press
MSL
hPa
Rain
since
9 am
mm
Dir
 
Spd
km/h
Gust
km/h
Spd
kts
Gust
kts
03/05:30am 12.5 - - - - SW 48 70 26 38 - - -
03/05:00am 12.6 - - - - SW 50 69 27 37 - - -
03/04:37am 12.5 - - - - SW 50 69 27 37 - - -
03/04:30am 12.6 - - - - SW 54 69 29 37 - - -
03/04:07am 12.5 - - - - SW 54 72 29 39 - - -
03/04:00am 12.5 - - - - SW 56 72 30 39 - - -
03/03:38am 12.4 - - - - SSW 57 76 31 41 - - -
03/03:34am 12.2 - - - - SSW 65 76 35 41 - - -
03/03:31am 12.5 - - - - SW 44 80 24 43 - - -
03/03:30am 12.3 - - - - SW 43 61 23 33 - - -
03/03:00am 11.4 - - - - WSW 41 52 22 28 - - -
03/02:30am 11.4 - - - - WSW 39 52 21 28 - - -
03/02:00am 11.2 - - - - SW 44 59 24 32 - - -
03/01:30am 10.7 - - - - SW 48 57 26 31 - - -
03/01:05am 10.4 - - - - WSW 37 56 20 30 - - -
03/01:00am 10.4 - - - - WSW 41 50 22 27 - - -
03/12:30am 10.4 - - - - WSW 46 59 25 32 - - -
03/12:00am 10.0 - - - - W 37 50 20 27 - - -
 
Date/Time
EST
Tmp

°C
App
Tmp
°C
Dew
Point
°C
Rel
Hum
%
Delta-T

°C
Wind Press
QNH
hPa
Press
MSL
hPa
Rain
since
9 am
mm
Dir
 
Spd
km/h
Gust
km/h
Spd
kts
Gust
kts
02/11:32pm 9.9 - - - - WSW 41 59 22 32 - - -
02/11:30pm 9.9 - - - - WSW 43 57 23 31 - - -
02/11:18pm 10.1 - - - - WSW 41 65 22 35 - - -
02/11:00pm 10.1 - - - - WSW 41 54 22 29 - - -
02/10:46pm 9.7 - - - - WSW 41 59 22 32 - - -
02/10:30pm 9.9 - - - - WSW 48 65 26 35 - - -
02/10:00pm 10.6 - - - - WSW 50 69 27 37 - - -
02/09:40pm 11.3 - - - - WSW 48 69 26 37 - - -
02/09:30pm 11.5 - - - - WSW 44 61 24 33 - - -
02/09:06pm 11.7 - - - - SW 46 65 25 35 - - -
02/09:00pm 12.0 - - - - SW 46 59 25 32 - - -
02/08:30pm 12.3 - - - - SW 44 57 24 31 - - -
02/08:00pm 12.7 - - - - SW 37 52 20 28 - - -
02/07:30pm 12.9 - - - - SW 32 39 17 21 - - -
02/07:00pm 12.9 - - - - SSW 32 39 17 21 - - -
02/06:41pm 13.3 - - - - SSW 35 39 19 21 - - -
02/06:30pm 13.5 - - - - SW 37 48 20 26 - - -
02/06:00pm 13.4 - - - - WSW 30 41 16 22 - - -
02/05:30pm 13.3 - - - - WSW 28 35 15 19 - - -
02/05:00pm 13.9 - - - - WSW 35 52 19 28 - - -
02/04:49pm 13.9 - - - - SW 41 50 22 27 - - -
02/04:30pm 13.8 - - - - W 15 19 8 10 - - -
02/04:00pm 13.7 - - - - SW 28 39 15 21 - - -
02/03:30pm 13.8 - - - - SSW 24 30 13 16 - - -
02/03:00pm 13.7 - - - - SSW 30 37 16 20 - - -
02/02:30pm 14.3 - - - - SSW 33 43 18 23 - - -
02/02:00pm 14.3 - - - - SSW 32 43 17 23 - - -
02/01:30pm 14.2 - - - - S 32 41 17 22 - - -
02/01:00pm 14.3 - - - - S 20 35 11 19 - - -
02/12:30pm 13.7 - - - - SSW 28 41 15 22 - - -
02/12:00pm 15.3 - - - - SSW 33 41 18 22 - - -
02/11:30am 15.8 - - - - WSW 24 30 13 16 - - -
02/11:00am 15.8 - - - - SW 28 33 15 18 - - -
02/10:30am 16.6 - - - - WSW 17 28 9 15 - - -
02/10:00am 16.6 - - - - SW 15 17 8 9 - - -
02/09:30am 16.3 - - - - WSW 13 19 7 10 - - -
02/09:00am 16.5 - - - - WNW 11 17 6 9 - - -
02/08:30am 16.3 - - - - W 11 17 6 9 - - -
02/08:00am 16.3 - - - - W 13 17 7 9 - - -
02/07:30am 16.2 - - - - W 22 28 12 15 - - -
02/07:00am 16.0 - - - - W 24 32 13 17 - - -
02/06:30am 16.1 - - - - W 19 26 10 14 - - -
02/06:00am 16.2 - - - - W 20 30 11 16 - - -
02/05:30am 16.4 - - - - WSW 24 41 13 22 - - -
02/05:00am 16.4 - - - - WSW 22 30 12 16 - - -
02/04:30am 17.0 - - - - WSW 30 39 16 21 - - -
02/04:00am 17.2 - - - - WSW 22 32 12 17 - - -
02/03:30am 17.8 - - - - W 19 26 10 14 - - -
02/03:00am 17.6 - - - - NW 11 17 6 9 - - -
02/02:30am 17.3 - - - - N 11 13 6 7 - - -
02/02:00am 17.5 - - - - N 13 15 7 8 - - -
02/01:30am 17.5 - - - - N 15 20 8 11 - - -
02/01:00am 17.5 - - - - N 13 19 7 10 - - -
02/12:30am 17.7 - - - - N 11 15 6 8 - - -
02/12:00am 17.1 - - - - NNW 9 9 5 5 - - -
 
Date/Time
EST
Tmp

°C
App
Tmp
°C
Dew
Point
°C
Rel
Hum
%
Delta-T

°C
Wind Press
QNH
hPa
Press
MSL
hPa
Rain
since
9 am
mm
Dir
 
Spd
km/h
Gust
km/h
Spd
kts
Gust
kts
01/11:30pm 18.1 - - - - NNW 9 11 5 6 - - -
01/11:00pm 18.3 - - - - NNW 11 13 6 7 - - -
01/10:30pm 19.2 - - - - NNW 17 20 9 11 - - -
01/10:00pm 18.8 - - - - NNW 19 22 10 12 - - -
01/09:30pm 18.8 - - - - NNW 13 20 7 11 - - -
01/09:00pm 19.1 - - - - NNW 17 22 9 12 - - -
01/08:30pm 19.3 - - - - NNW 17 24 9 13 - - -
01/08:00pm 19.7 - - - - NNW 17 22 9 12 - - -
01/07:30pm 19.5 - - - - NNW 15 19 8 10 - - -
01/07:00pm 18.6 - - - - NNW 11 13 6 7 - - -
01/06:30pm 18.6 - - - - N 11 13 6 7 - - -
01/06:00pm 18.4 - - - - N 13 15 7 8 - - -
01/05:30pm 18.4 - - - - NNE 17 20 9 11 - - -
01/05:00pm 18.7 - - - - NNE 22 26 12 14 - - -
01/04:30pm 18.4 - - - - NNE 26 32 14 17 - - -
01/04:00pm 18.7 - - - - NNE 30 33 16 18 - - -
01/03:30pm 18.9 - - - - NNE 17 20 9 11 - - -
01/03:00pm 19.3 - - - - ENE 19 20 10 11 - - -
01/02:30pm 19.0 - - - - ENE 20 24 11 13 - - -
01/02:00pm 18.5 - - - - ENE 20 24 11 13 - - -
01/01:30pm 18.7 - - - - ENE 17 20 9 11 - - -
01/01:00pm 18.7 - - - - E 13 17 7 9 - - -
01/12:30pm 19.4 - - - - SW 6 7 3 4 - - -
01/12:00pm 17.9 - - - - SW 6 9 3 5 - - -
01/11:30am 18.4 - - - - SW 7 7 4 4 - - -
01/11:00am 17.0 - - - - SW 4 6 2 3 - - -
01/10:30am 15.8 - - - - SW 7 9 4 5 - - -
01/10:00am 14.5 - - - - SW 7 9 4 5 - - -
01/09:30am 14.3 - - - - SW 7 9 4 5 - - -
01/09:00am 13.5 - - - - WSW 11 15 6 8 - - -
01/08:30am 13.1 - - - - SW 19 24 10 13 - - -
01/08:00am 12.3 - - - - NNW 7 11 4 6 - - -
01/07:30am 11.5 - - - - NNW 7 9 4 5 - - -
01/07:00am 11.5 - - - - WNW 9 13 5 7 - - -
01/06:30am 11.8 - - - - W 7 11 4 6 - - -
01/06:00am 12.2 - - - - W 7 9 4 5 - - -
01/05:30am 12.6 - - - - W 15 19 8 10 - - -
01/05:00am 12.9 - - - - WNW 15 17 8 9 - - -
01/04:30am 13.8 - - - - NW 9 13 5 7 - - -
01/04:00am 13.9 - - - - WNW 11 13 6 7 - - -
01/03:30am 13.5 - - - - W 13 17 7 9 - - -
01/03:00am 14.1 - - - - CALM 0 0 0 0 - - -
01/02:30am 13.8 - - - - CALM 0 0 0 0 - - -
01/02:00am 14.1 - - - - CALM 0 0 0 0 - - -
01/01:30am 13.7 - - - - CALM 0 0 0 0 - - -
01/01:00am 13.8 - - - - CALM 0 0 0 0 - - -
01/12:30am 14.5 - - - - SW 4 7 2 4 - - -
01/12:00am 14.5 - - - - SW 7 11 4 6 - - -
 
Date/Time
EST
Tmp

°C
App
Tmp
°C
Dew
Point
°C
Rel
Hum
%
Delta-T

°C
Wind Press
QNH
hPa
Press
MSL
hPa
Rain
since
9 am
mm
Dir
 
Spd
km/h
Gust
km/h
Spd
kts
Gust
kts
31/11:30pm 14.9 - - - - SW 7 11 4 6 - - -
31/11:00pm 14.9 - - - - SSW 6 9 3 5 - - -
31/10:30pm 14.7 - - - - N 7 11 4 6 - - -
31/10:00pm 14.8 - - - - ENE 6 9 3 5 - - -
31/09:30pm 14.9 - - - - CALM 0 0 0 0 - - -
31/09:00pm 15.2 - - - - CALM 0 0 0 0 - - -
31/08:30pm 16.1 - - - - ENE 6 7 3 4 - - -
31/08:00pm 16.2 - - - - ENE 7 11 4 6 - - -
31/07:30pm 16.2 - - - - ENE 9 13 5 7 - - -
31/07:00pm 16.5 - - - - E 13 15 7 8 - - -
31/06:30pm 16.5 - - - - E 13 17 7 9 - - -
31/06:00pm 16.5 - - - - E 13 17 7 9 - - -
31/05:30pm 16.6 - - - - ESE 13 17 7 9 - - -
31/05:00pm 17.4 - - - - ESE 13 19 7 10 - - -
31/04:30pm 17.9 - - - - ESE 13 17 7 9 - - -
31/04:00pm 17.9 - - - - SE 15 19 8 10 - - -
31/03:30pm 17.9 - - - - SE 19 22 10 12 - - -
31/03:00pm 17.7 - - - - SE 17 20 9 11 - - -
31/02:30pm 17.6 - - - - SE 17 22 9 12 - - -
31/02:00pm 17.5 - - - - SE 19 22 10 12 - - -
31/01:30pm 17.7 - - - - SE 20 22 11 12 - - -
31/01:00pm 17.9 - - - - SE 19 20 10 11 - - -
31/12:30pm 18.3 - - - - S 6 15 3 8 - - -
31/12:00pm 17.3 - - - - SW 7 9 4 5 - - -
31/11:30am 16.9 - - - - SW 11 13 6 7 - - -
31/11:00am 16.5 - - - - SW 11 15 6 8 - - -
31/10:30am 16.0 - - - - WSW 17 20 9 11 - - -
31/10:00am 15.6 - - - - W 20 24 11 13 - - -
31/09:30am 14.9 - - - - W 19 24 10 13 - - -
31/09:00am 14.3 - - - - W 22 28 12 15 - - -
31/08:30am 14.1 - - - - W 24 30 13 16 - - -
31/08:00am 13.8 - - - - W 26 32 14 17 - - -
31/07:30am 13.3 - - - - W 26 30 14 16 - - -
31/07:00am 13.0 - - - - W 24 32 13 17 - - -
31/06:30am 12.8 - - - - W 24 28 13 15 - - -
31/06:00am 12.9 - - - - W 26 32 14 17 - - -

Latest Capital City Observations: Canberra | Sydney | Melbourne | Brisbane | Adelaide | Perth | Hobart | Darwin

Other Formats:

Comma delimited format used in spreadsheet applications
http://www.bom.gov.au/fwo/IDN60901/IDN60901.95766.axf

JavaScript Object Notation format (JSON) in row-major order
http://www.bom.gov.au/fwo/IDN60901/IDN60901.95766.json